STARLINK-4096 (53160 NORAD) Tracking and Keplerian Element Data

This shows tracking and keplerian element data for the satellite.

Feedback or suggestion? Click here.




ElementValue
Catalog53160
NameSTARLINK-4096
Epoch Orbit1185
Epoch Day270.25001157
Epoch Year2022
RAAN58.0954
Inclination53.2173
Eccentricity0.0001221
Argument of Perigee65.8886
Mean Anonmoly327.4419
Mean Motion15.18244375
Decay Rate-0.01072493
L11 53160U 22083AE 22270.25001157 -.01072493 00000+0 -55826-1 0 9998
L22 53160 53.2173 58.0954 0001221 65.8886 327.4419 15.18244375 11851

Live tracking and technical data element details for STARLINK-4096 (NORAD 53160). STARLINK-4096 can be tracked NOW for your location showing map with azimuth and elevation plus other details from your city location.

Track the satellite on the map from your city or location and see movement details for azimuth, elevation, latitude, longitude, range, height, and movement on the map or in text.







IsCatalogInMostPopularTable: catalog: 53160, numindb: 7
Update: records affected: 1



GetName: 53160 STARLINK-4096

Hit Count: updated at: Fri, 30 Sep 2022 03:30:03 GMT